Wind_Speed
29 28 29 31 33 32 31 29 24 22 22 20 21 20 18 15 17 18 16 16 18 19 14 15 10 13 15 21 23 20 17 18 19 20 22 23 22 20 18 19 22 24 22
29 29 31 33 34 34 33 31 26 22 22 21 20 20 17 16 15 16 15 15 18 17 13 13 12 14 16 21 20 19 19 20 21 22 23 24 22 23 22 21 23 24 19
35 32 31 33 34 34 37 36 30 24 23 22 21 20 17 16 17 14 14 11 16 17 17 18 13 15 18 20 20 20 20 19 20 22 24 24 22 22 22 22 22 17 14
38 37 33 34 36 33 38 40 36 29 25 24 22 21 16 17 17 16 13 13 20 22 24 21 22 22 20 22 21 20 19 19 21 21 23 22 22 22 24 24 22 21 19
39 39 38 36 40 36 39 41 39 36 29 26 24 23 22 18 18 17 15 15 17 23 25 22 22 20 21 22 22 22 21 22 22 22 22 22 24 25 28 27 26 23 21
46 47 45 44 42 43 43 42 41 40 34 30 26 24 25 23 19 20 18 17 19 21 27 26 24 22 23 24 24 25 24 24 24 24 25 25 27 28 29 31 26 21 21
48 49 46 45 51 50 49 47 45 42 38 33 31 27 27 26 21 23 22 19 18 18 24 29 25 23 26 27 26 28 27 26 27 27 26 28 28 33 32 27 23 23 22
51 53 50 48 46 58 57 52 47 46 45 39 34 33 29 29 29 27 24 22 21 19 23 27 30 31 27 31 29 28 28 28 30 29 28 29 29 27 27 23 24 24 22
55 58 54 48 54 56 58 56 54 47 47 40 40 36 33 26 28 26 26 24 22 22 21 22 29 33 32 27 33 30 31 31 30 30 28 32 25 24 22 21 24 26 23
52 55 54 54 57 63 50 55 54 56 53 47 43 35 34 37 33 23 25 28 23 22 23 23 25 28 34 28 31 31 33 33 32 30 30 30 23 21 21 24 26 26 25
55 58 60 62 59 55 52 57 56 55 52 43 41 37 35 29 21 25 27 30 27 24 21 24 22 27 25 26 27 30 33 33 33 31 30 31 24 22 26 27 27 28 28
58 61 63 65 65 65 55 54 55 59 53 41 40 38 34 29 29 31 32 34 29 27 25 21 24 25 32 30 28 29 31 30 31 31 31 30 28 26 29 31 32 32 31
54 60 57 58 49 67 62 53 41 39 43 41 39 38 35 33 33 32 37 36 31 30 28 26 25 24 26 31 32 30 29 31 32 32 32 35 34 31 31 35 37 36 34
57 56 54 56 36 48 49 46 52 47 47 45 38 38 36 35 37 35 38 39 33 30 31 32 31 25 27 29 32 33 37 37 34 32 31 33 29 30 34 38 40 39 37
54 52 56 43 45 39 36 38 41 42 44 42 39 38 39 38 39 37 36 34 33 33 31 35 32 32 30 30 34 36 37 40 40 37 35 34 32 31 33 35 43 42 41
55 42 44 50 43 41 37 35 34 36 41 44 43 40 41 40 41 38 37 38 37 36 33 34 34 33 36 32 34 36 38 39 37 38 38 38 36 35 35 35 37 44 44
51 49 44 47 33 32 36 38 36 38 41 38 45 42 41 42 43 41 39 40 40 40 35 36 32 33 35 33 33 33 37 40 42 43 40 40 40 39 37 36 33 41 47
49 42 39 35 38 34 37 38 38 40 44 45 43 44 42 42 43 46 43 41 40 42 40 36 33 32 35 33 35 34 35 40 42 43 42 43 43 43 41 41 38 38 41
45 35 36 39 38 38 39 40 42 42 45 47 44 49 45 45 45 46 48 44 42 43 42 39 36 33 34 35 33 37 43 47 38 44 43 42 44 44 42 41 40 39 41
31 34 34 38 36 35 36 39 48 50 47 48 46 47 49 51 46 44 44 44 44 45 44 40 36 35 35 34 37 34 37 42 43 43 41 41 45 45 46 45 44 43 38
30 31 31 24 27 31 32 39 38 47 53 50 50 49 46 48 51 48 46 46 45 45 46 44 38 36 36 35 35 37 37 39 45 43 42 42 45 46 47 45 43 42 39
34 29 28 29 29 27 33 33 40 38 42 50 45 42 48 49 45 50 50 46 48 47 47 46 41 39 37 36 39 39 39 40 39 38 37 48 45 46 48 48 43 37 31
35 34 30 30 25 25 26 28 26 25 29 42 53 48 46 45 53 54 53 48 49 50 50 47 45 42 38 39 43 38 39 42 40 42 44 43 50 47 47 46 42 38 34
39 40 38 30 29 29 28 27 28 23 19 25 48 51 48 49 46 47 46 45 49 49 50 46 46 43 40 43 42 41 39 39 40 40 39 40 47 51 49 42 39 38 35
37 33 36 36 34 34 32 32 34 31 25 22 27 38 60 50 49 45 46 45 55 52 51 48 48 45 44 45 43 42 40 41 39 37 41 33 35 40 48 40 34 36 40
36 34 33 33 35 36 33 34 32 37 31 24 22 29 36 53 60 54 51 50 55 40 46 47 47 46 45 43 42 42 41 41 40 36 38 39 38 39 46 45 40 38 42
Wind_Direction
272 270 266 269 273 276 276 281 282 276 280 287 298 307 308 294 301 286 292 269 248 238 241 239 283 254 234 234 234 229 227 230 227 227 232 233 240 245 252 264 272 275 269
267 268 270 272 275 279 278 278 281 275 273 278 287 298 299 289 296 296 284 272 244 219 231 258 265 268 242 229 227 229 229 230 227 231 239 241 248 251 261 271 274 278 261
274 270 269 272 274 277 279 280 279 274 271 271 276 288 293 288 288 299 279 260 229 230 234 240 248 269 238 234 233 233 233 233 231 237 244 248 254 260 265 269 269 283 254
271 272 276 274 271 272 275 277 277 275 267 268 267 277 283 282 278 289 269 258 236 242 241 248 262 263 244 234 234 233 233 235 233 239 246 252 259 262 262 263 275 276 257
267 270 271 273 271 267 266 271 274 274 268 265 261 268 273 279 275 276 276 261 249 242 231 256 257 253 245 233 233 234 238 240 243 242 248 256 261 262 262 259 275 267 243
264 263 264 265 265 266 265 267 268 270 268 263 258 258 268 275 271 270 271 262 253 244 242 251 257 251 237 231 234 235 238 241 243 246 252 258 260 262 265 268 267 243 230
266 271 265 272 266 263 264 263 264 265 265 262 257 254 255 266 270 266 268 264 266 247 250 242 249 251 237 234 234 242 241 238 243 246 252 256 260 259 275 273 242 224 232
263 266 271 275 271 261 261 264 262 262 264 259 257 251 249 251 261 258 259 264 263 265 255 247 245 252 246 234 239 241 239 240 246 252 254 257 268 274 274 257 225 223 232
269 273 274 272 267 267 262 259 262 262 262 255 255 250 250 251 241 254 256 262 262 262 266 259 254 249 256 240 238 242 242 245 250 257 261 260 272 277 259 228 227 231 235
262 264 265 263 265 261 252 252 258 262 260 255 250 252 251 250 248 254 257 257 262 267 266 272 262 255 256 249 239 242 245 247 254 258 263 270 273 265 239 233 234 238 242
254 254 255 258 259 262 263 261 254 254 255 245 243 244 245 250 240 252 260 257 256 260 270 270 273 252 241 244 242 244 246 250 252 257 261 264 269 250 240 240 240 243 247
250 251 253 256 260 261 258 254 254 248 252 238 242 241 242 240 242 247 254 259 256 257 262 273 270 255 250 252 246 251 250 251 251 254 259 262 264 247 243 246 247 248 250
259 250 254 254 251 253 252 254 244 242 244 241 242 240 238 239 240 242 251 257 255 253 257 263 270 265 255 253 252 250 254 261 257 259 261 262 258 245 242 246 249 253 252
254 259 259 255 259 249 253 258 256 260 260 235 241 240 238 238 242 243 251 256 250 255 258 258 261 265 267 261 253 254 252 260 254 257 266 272 279 277 257 243 246 252 254
249 254 259 266 261 260 251 253 250 247 252 244 245 242 240 237 241 244 249 254 252 254 256 257 258 263 266 268 258 255 255 249 259 256 258 266 273 276 275 266 247 248 252
250 263 270 271 266 257 255 259 260 253 250 250 244 242 240 241 243 244 242 249 251 254 251 254 259 265 268 278 262 261 259 256 263 259 263 263 269 269 273 271 265 250 251
259 259 260 262 256 257 258 264 264 260 255 252 243 242 241 240 241 241 243 245 247 252 253 251 249 259 267 275 267 266 263 263 263 259 260 261 264 266 268 272 267 260 257
256 258 252 251 256 256 259 260 260 262 256 253 247 237 240 239 242 241 239 244 248 249 249 250 250 250 260 275 267 266 262 265 267 253 257 259 259 262 266 268 273 272 270
250 242 247 247 251 248 248 252 255 255 253 252 250 237 238 238 241 242 240 242 243 247 249 251 251 255 257 264 269 269 272 275 265 258 255 253 259 262 264 264 272 277 280
233 236 238 240 248 247 248 256 253 253 247 245 246 241 239 238 238 234 240 240 242 246 249 251 255 253 258 262 266 275 272 268 272 272 268 257 259 259 260 263 267 274 278
226 232 233 234 251 254 255 255 255 254 248 237 242 244 242 241 235 236 242 240 240 245 249 253 255 257 257 259 267 272 275 278 268 274 261 259 254 258 259 261 262 270 278
230 232 229 239 248 255 250 252 252 263 252 240 231 235 240 245 239 239 240 239 240 244 248 253 256 259 256 263 265 269 277 281 272 263 259 254 255 256 259 259 260 270 269
229 234 232 236 246 251 255 248 257 257 258 241 235 237 240 245 247 244 239 240 240 241 245 250 255 258 258 262 262 267 274 275 285 275 263 254 252 250 252 254 261 267 262
242 238 243 239 239 248 253 255 256 249 257 262 242 239 239 244 251 251 236 244 243 245 245 248 254 255 256 259 262 264 271 278 284 272 261 253 249 252 251 249 259 266 266
254 261 260 242 234 243 247 255 256 262 253 258 260 254 240 243 244 245 246 244 247 244 243 245 251 254 255 259 261 265 270 272 282 271 263 255 255 257 250 247 260 268 269
252 250 248 250 241 242 246 246 258 254 257 255 265 263 262 247 242 245 250 248 252 249 244 248 251 253 254 256 261 265 269 273 278 274 267 272 260 261 249 251 251 261 267
Height
5807 5809 5809 5808 5807 5806 5805 5805 5806 5806 5804 5803 5801 5799 5797 5795 5793 5789 5789 5787 5787 5788 5789 5791 5790 5792 5794 5796 5797 5798 5801 5803 5804 5806 5809 5810 5811 5813 5814 5814 5814 5814 5813
5801 5801 5801 5801 5801 5801 5799 5799 5800 5802 5800 5799 5798 5796 5794 5792 5791 5787 5785 5784 5784 5785 5787 5788 5789 5789 5791 5793 5794 5796 5798 5800 5801 5804 5806 5807 5808 5810 5811 5811 5810 5809 5808
5794 5793 5794 5794 5794 5795 5794 5793 5794 5795 5796 5794 5794 5793 5791 5789 5788 5786 5783 5782 5783 5783 5785 5786 5786 5788 5788 5790 5792 5794 5796 5798 5799 5801 5803 5804 5805 5807 5807 5807 5807 5805 5804
5787 5787 5787 5786 5786 5788 5787 5787 5788 5789 5789 5789 5789 5789 5787 5786 5784 5782 5781 5781 5780 5781 5782 5783 5784 5784 5786 5787 5789 5791 5792 5794 5796 5797 5799 5800 5802 5802 5803 5803 5802 5801 5802
5779 5779 5780 5779 5779 5780 5779 5779 5781 5783 5783 5782 5783 5784 5783 5781 5779 5778 5778 5778 5776 5777 5778 5780 5781 5780 5782 5784 5785 5787 5789 5791 5792 5793 5795 5796 5797 5797 5797 5797 5797 5796 5798
5769 5771 5771 5771 5771 5770 5770 5771 5771 5773 5777 5776 5776 5778 5778 5777 5775 5774 5774 5775 5775 5775 5776 5776 5777 5777 5778 5780 5782 5783 5785 5787 5788 5789 5790 5791 5792 5791 5791 5791 5791 5791 5793
5759 5759 5762 5764 5764 5762 5761 5761 5762 5764 5767 5769 5768 5771 5771 5771 5771 5769 5770 5770 5770 5770 5770 5772 5773 5773 5774 5776 5777 5780 5780 5781 5783 5784 5786 5786 5786 5785 5784 5784 5785 5787 5789
5748 5748 5749 5752 5752 5753 5751 5752 5753 5755 5757 5761 5760 5761 5765 5766 5767 5764 5764 5764 5765 5765 5765 5766 5767 5767 5769 5771 5773 5774 5775 5777 5779 5780 5780 5780 5779 5778 5777 5778 5781 5783 5785
5735 5736 5737 5739 5740 5738 5740 5740 5744 5745 5748 5751 5751 5753 5757 5759 5757 5758 5758 5758 5759 5759 5759 5759 5761 5761 5763 5764 5767 5769 5771 5772 5773 5774 5774 5773 5773 5773 5773 5775 5778 5779 5780
5724 5723 5724 5725 5726 5724 5723 5729 5732 5735 5735 5741 5742 5745 5749 5750 5751 5751 5752 5752 5753 5753 5754 5755 5754 5755 5756 5759 5761 5763 5764 5766 5767 5768 5768 5768 5768 5768 5769 5772 5774 5775 5776
5710 5710 5709 5712 5712 5714 5717 5718 5718 5723 5725 5730 5733 5735 5738 5741 5743 5745 5744 5745 5746 5747 5749 5748 5748 5750 5752 5753 5756 5757 5758 5759 5760 5761 5762 5763 5763 5764 5766 5767 5769 5770 5771
5692 5696 5697 5698 5698 5699 5702 5707 5707 5710 5713 5719 5723 5725 5730 5734 5738 5737 5737 5737 5740 5742 5742 5744 5744 5743 5745 5747 5749 5750 5751 5752 5753 5754 5755 5756 5757 5758 5760 5762 5763 5764 5765
5680 5681 5687 5691 5689 5687 5692 5695 5697 5701 5704 5707 5713 5716 5720 5725 5729 5730 5730 5731 5734 5734 5736 5738 5738 5737 5738 5741 5742 5744 5744 5744 5745 5746 5748 5747 5747 5749 5752 5754 5756 5757 5758
5669 5673 5676 5674 5662 5670 5679 5683 5685 5689 5691 5695 5701 5706 5711 5716 5719 5722 5723 5724 5726 5728 5729 5732 5732 5732 5732 5733 5735 5736 5738 5738 5738 5739 5741 5741 5742 5742 5744 5744 5746 5748 5750
5654 5656 5661 5660 5658 5665 5666 5671 5674 5676 5680 5684 5690 5695 5700 5705 5709 5713 5714 5716 5719 5721 5723 5723 5724 5724 5726 5726 5727 5728 5730 5731 5732 5732 5733 5734 5735 5736 5735 5736 5736 5739 5740
5642 5644 5647 5649 5654 5657 5658 5659 5662 5664 5669 5675 5680 5684 5690 5695 5699 5702 5705 5707 5709 5713 5716 5716 5716 5716 5715 5718 5718 5720 5720 5722 5723 5724 5725 5726 5727 5728 5728 5727 5727 5729 5730
5633 5638 5640 5642 5644 5645 5646 5649 5651 5655 5659 5665 5669 5674 5680 5684 5689 5692 5694 5697 5701 5704 5708 5708 5710 5709 5708 5710 5710 5712 5712 5713 5715 5715 5716 5717 5718 5719 5719 5719 5718 5719 5719
5625 5625 5628 5631 5634 5635 5638 5640 5643 5647 5650 5654 5659 5662 5668 5673 5677 5683 5684 5687 5692 5695 5697 5700 5701 5702 5702 5702 5702 5702 5703 5704 5705 5706 5707 5707 5708 5709 5710 5710 5710 5710 5709
5615 5618 5620 5621 5624 5626 5628 5630 5634 5638 5640 5644 5647 5651 5657 5662 5666 5671 5674 5678 5681 5685 5687 5689 5693 5693 5695 5694 5693 5693 5694 5693 5694 5696 5695 5696 5697 5699 5700 5701 5701 5700 5700
5603 5606 5609 5612 5614 5617 5618 5621 5625 5627 5631 5634 5638 5641 5646 5650 5655 5659 5663 5667 5671 5673 5677 5678 5683 5685 5686 5686 5685 5685 5684 5684 5684 5685 5684 5685 5687 5688 5689 5691 5691 5691 5690
5594 5599 5601 5602 5605 5606 5607 5611 5613 5615 5618 5623 5626 5630 5634 5638 5642 5646 5651 5655 5659 5662 5664 5667 5672 5675 5677 5678 5676 5675 5674 5674 5674 5674 5674 5674 5675 5677 5678 5679 5680 5680 5679
5586 5590 5592 5595 5598 5598 5600 5602 5604 5605 5603 5610 5615 5618 5621 5624 5628 5633 5638 5642 5647 5650 5652 5657 5662 5664 5667 5666 5665 5664 5664 5664 5663 5664 5662 5662 5664 5665 5667 5668 5668 5668 5668
5577 5581 5583 5586 5588 5590 5591 5593 5594 5596 5594 5596 5602 5607 5609 5613 5617 5620 5624 5630 5634 5638 5641 5647 5651 5654 5655 5654 5653 5655 5654 5652 5651 5651 5650 5649 5650 5652 5654 5654 5656 5657 5657
5567 5571 5574 5576 5579 5581 5583 5585 5587 5587 5587 5587 5590 5594 5597 5602 5606 5607 5612 5616 5622 5626 5631 5636 5639 5641 5642 5643 5644 5643 5644 5643 5641 5639 5638 5637 5639 5640 5641 5642 5644 5645 5646
5557 5559 5562 5565 5568 5570 5573 5575 5576 5578 5579 5579 5579 5580 5584 5590 5596 5597 5600 5608 5609 5612 5617 5622 5626 5628 5630 5632 5633 5633 5634 5631 5629 5629 5628 5629 5629 5629 5629 5630 5632 5634 5635
5547 5549 5552 5555 5557 5560 5561 5563 5566 5567 5569 5570 5569 5571 5571 5573 5581 5584 5588 5593 5596 5597 5604 5609 5613 5615 5617 5619 5622 5621 5622 5621 5619 5618 5620 5618 5618 5619 5618 5619 5619 5621 5624